Volver al catálogo

STARLINK-4011

ActivoComunicacionesVLEO
NORAD 52615·PAYLOAD·🇺🇸 United States

Lanzado May 14, 2022 desde Cape Canaveral Space Force Station

Loading…

Próximos Pases (próximas 24 horas)

TLE

ActualizadoSource: CelesTrak SupGP

Época: Sep 14, 2026, 22:12 UTC

1 52615C 22052T   26257.92548611 -.00031648  00000+0 -90570-3 0  2572
2 52615  53.1583 142.2386 0001263  83.8063 196.1915 15.35406856    18

Sigue STARLINK-4011 en tiempo real con AllMySat

Download on the App Store